Freeport, IL

3:11 AM CST on December 06, 2019 (GMT -0600)
Albertus

Weather History for KFEP - October, 2019

Change the Weather History Date:

Thursday, October 31, 2019

  Actual Average Record
Temperature  
Mean Temperature 27 °F -  
Max Temperature 32 °F 58 °F 74 °F (1981)
Min Temperature 22 °F 36 °F 17 °F (1988)
Degree Days  
Heating Degree Days 38    
Moisture  
Dew Point 24 °F    
Average Humidity 88    
Maximum Humidity 100    
Minimum Humidity 64    
Precipitation  
Precipitation 0.04 in - - ()
Sea Level Pressure  
Sea Level Pressure 30.01 in    
Wind  
Wind Speed 12 mph (NW)    
Max Wind Speed 20 mph    
Max Gust Speed 25 mph    
Visibility 5 miles    
Events Snow    
Averages and records for this station are not official NWS values.
T = Trace of Precipitation, MM = Missing Value Source: NWS Daily Summary

Daily Weather History Graph

Daily Weather History Graph

Search for Another Location

Airport or City:

Astronomy

Oct. 31, 2019 Rise Set
Actual Time 7:29 AM CDT 5:53 PM CDT
Civil Twilight 7:00 AM CDT 6:22 PM CDT
Nautical Twilight 6:27 AM CDT 6:55 PM CDT
Astronomical Twilight 5:55 AM CDT 7:27 PM CDT
Moon 11:21 AM CDT (10/31) 8:46 PM CDT (10/31)
Length of Visible Light 11h 21m
Length of Day
10h 23m
Waxing Crescent, 16% of the Moon is Illuminated
Oct 31
Waxing Crescent
Nov 4
First Quarter
Nov 12
Full
Nov 19
Last Quarter
Nov 26
New

Hourly Weather History & Observations

Time (CDT) Temp. Windchill Dew Point Humidity Pressure Visibility Wind Dir Wind Speed Gust Speed Precip Events Conditions
12:15 AM 29.1 °F 20.0 °F 29.1 °F 100% 30.03 in 1.5 mi North 10.4 mph - N/A Snow Light Snow
12:35 AM 29.1 °F 20.0 °F 29.1 °F 100% 30.05 in 1.0 mi NNW 10.4 mph - N/A Snow Light Snow
12:55 AM 29.1 °F 21.3 °F 29.1 °F 100% 30.03 in 1.5 mi North 8.1 mph - N/A Snow Light Snow
1:15 AM 29.1 °F 18.9 °F 29.1 °F 100% 30.01 in 3.0 mi North 12.7 mph 19.6 mph N/A Snow Light Snow
1:35 AM 29.1 °F 18.9 °F 28.9 °F 99% 30.03 in 2.0 mi North 12.7 mph 17.3 mph N/A Snow Light Snow
1:55 AM 28.9 °F 18.6 °F 28.8 °F 99% 30.01 in 2.0 mi North 12.7 mph 19.6 mph N/A Snow Light Snow
2:15 AM 28.8 °F 16.2 °F 28.8 °F 100% 30.01 in 1.8 mi North 18.4 mph 21.9 mph N/A Snow Light Snow
2:35 AM 28.4 °F 17.0 °F 28.2 °F 99% 29.99 in 2.0 mi North 15.0 mph 24.2 mph N/A Snow Light Snow
2:55 AM 28.2 °F 18.3 °F 27.5 °F 97% 29.99 in 2.5 mi North 11.5 mph 21.9 mph N/A Snow Light Snow
3:15 AM 28.2 °F 18.9 °F 27.3 °F 96% 29.99 in 3.0 mi North 10.4 mph 19.6 mph N/A Snow Light Snow
3:35 AM 28.2 °F 17.7 °F 27.3 °F 96% 29.99 in 3.0 mi North 12.7 mph - N/A Snow Light Snow
3:55 AM 28.0 °F 18.1 °F 27.1 °F 96% 29.99 in 2.0 mi North 11.5 mph 19.6 mph N/A Snow Light Snow
4:15 AM 27.9 °F 18.4 °F 27.5 °F 99% 29.98 in 2.5 mi NNW 10.4 mph - N/A Snow Light Snow
4:35 AM 27.5 °F 16.3 °F 27.1 °F 99% 29.97 in 3.0 mi North 13.8 mph 19.6 mph N/A Snow Light Snow
4:55 AM 27.5 °F 17.4 °F 27.3 °F 99% 29.97 in 2.5 mi North 11.5 mph - N/A Snow Light Snow
5:15 AM 27.5 °F 18.0 °F 27.1 °F 99% 29.98 in 2.5 mi North 10.4 mph - N/A Snow Light Snow
5:35 AM 27.5 °F 16.8 °F 27.3 °F 99% 29.96 in 1.5 mi North 12.7 mph 16.1 mph N/A Snow Light Snow
5:55 AM 27.3 °F 19.1 °F 27.1 °F 99% 29.96 in 2.0 mi NNW 8.1 mph - N/A Snow Light Snow
6:15 AM 27.3 °F 18.4 °F 27.0 °F 99% 29.96 in 2.5 mi North 9.2 mph - N/A Snow Light Snow
6:35 AM 27.3 °F 16.6 °F 26.4 °F 96% 29.95 in 4.0 mi NNW 12.7 mph - N/A Snow Light Snow
6:55 AM 27.3 °F 17.1 °F 26.6 °F 97% 29.95 in 2.5 mi NNW 11.5 mph 20.7 mph N/A Snow Light Snow
7:15 AM 27.1 °F 15.9 °F 26.6 °F 98% 29.94 in 2.5 mi NNW 13.8 mph 17.3 mph N/A Snow Light Snow
7:35 AM 27.1 °F 16.4 °F 26.6 °F 98% 29.94 in 2.0 mi NNW 12.7 mph 19.6 mph N/A Snow Light Snow
7:55 AM 27.1 °F 16.4 °F 26.4 °F 97% 29.93 in 1.2 mi NNW 12.7 mph 17.3 mph N/A Snow Light Snow
8:15 AM 27.1 °F 14.9 °F 26.1 °F 96% 29.93 in 1.2 mi NNW 16.1 mph 21.9 mph N/A Snow Light Snow
8:35 AM 27.1 °F 15.9 °F 26.2 °F 96% 29.94 in 1.0 mi NNW 13.8 mph 20.7 mph N/A Snow Light Snow
8:55 AM 27.1 °F 15.4 °F 26.1 °F 96% 29.93 in 1.0 mi NW 15.0 mph 23.0 mph N/A Snow Light Snow
9:15 AM 27.1 °F 16.4 °F 26.1 °F 96% 29.94 in 1.8 mi NNW 12.7 mph 21.9 mph N/A Snow Light Snow
9:35 AM 27.1 °F 15.4 °F 26.4 °F 97% 29.94 in 0.8 mi NNW 15.0 mph 18.4 mph N/A Snow Light Snow
9:55 AM 27.3 °F 17.7 °F 26.6 °F 97% 29.94 in 1.0 mi NNW 10.4 mph 20.7 mph N/A Snow Light Snow
10:15 AM 27.5 °F 16.3 °F 26.2 °F 95% 29.94 in 1.2 mi NNW 13.8 mph 20.7 mph N/A Snow Light Snow
10:35 AM 27.9 °F 16.3 °F 26.2 °F 94% 29.94 in 1.2 mi NW 15.0 mph 21.9 mph N/A Snow Light Snow
10:55 AM 28.0 °F 14.9 °F 26.4 °F 94% 29.95 in 1.0 mi NNW 19.6 mph 24.2 mph N/A Snow Light Snow
11:15 AM 28.4 °F 18.5 °F 26.4 °F 92% 29.95 in 1.8 mi NW 11.5 mph - N/A Snow Light Snow
11:35 AM 28.4 °F 17.5 °F 26.6 °F 93% 29.95 in 1.5 mi NW 13.8 mph 20.7 mph N/A Snow Light Snow
11:55 AM 28.2 °F 16.8 °F 26.6 °F 94% 29.95 in 1.2 mi NW 15.0 mph 21.9 mph N/A Snow Light Snow
12:15 PM 27.9 °F 15.9 °F 26.2 °F 94% 29.95 in 1.0 mi NW 16.1 mph 25.3 mph N/A Snow Light Snow
12:35 PM 27.9 °F 16.3 °F 26.4 °F 94% 29.96 in 1.0 mi NW 15.0 mph 25.3 mph N/A Snow Light Snow
12:55 PM 28.2 °F 15.9 °F 26.1 °F 92% 29.96 in 1.5 mi NW 17.3 mph 20.7 mph N/A Snow Light Snow
1:15 PM 28.4 °F 15.8 °F 26.6 °F 93% 29.96 in 1.2 mi NW 18.4 mph 24.2 mph N/A Snow Light Snow
1:35 PM 28.4 °F 17.0 °F 26.6 °F 93% 29.96 in 1.2 mi NW 15.0 mph 23.0 mph N/A Snow Light Snow
1:55 PM 28.8 °F 17.9 °F 26.8 °F 92% 29.97 in 1.8 mi NW 13.8 mph 21.9 mph N/A Snow Light Snow
2:15 PM 29.1 °F 19.4 °F 26.6 °F 90% 29.97 in 2.5 mi NW 11.5 mph 21.9 mph N/A Snow Light Snow
2:35 PM 30.0 °F 19.1 °F 25.5 °F 83% 29.98 in 7.0 mi NW 15.0 mph 23.0 mph N/A   Overcast
2:55 PM 30.6 °F 20.7 °F 25.3 °F 81% 29.99 in 10.0 mi NW 12.7 mph - 0.01 in   Overcast
3:15 PM 30.6 °F 21.2 °F 24.4 °F 78% 29.99 in 5.0 mi NW 11.5 mph 21.9 mph N/A   Haze
3:35 PM 31.1 °F 21.9 °F 23.9 °F 75% 30.00 in 10.0 mi WNW 11.5 mph 20.7 mph 0.01 in   Overcast
3:55 PM 31.8 °F 21.4 °F 21.9 °F 67% 30.01 in 10.0 mi NW 15.0 mph - 0.02 in   Overcast
4:15 PM 32.0 °F 22.1 °F 22.3 °F 67% 30.01 in 10.0 mi WNW 13.8 mph 20.7 mph 0.01 in   Overcast
4:35 PM 31.8 °F 21.4 °F 21.0 °F 64% 30.02 in 10.0 mi WNW 15.0 mph 23.0 mph 0.01 in   Overcast
4:55 PM 31.8 °F 22.8 °F 21.0 °F 64% 30.03 in 10.0 mi WNW 11.5 mph - 0.01 in   Overcast
5:15 PM 31.1 °F 21.4 °F 20.3 °F 64% 30.04 in 10.0 mi WNW 12.7 mph 18.4 mph N/A   Overcast
5:35 PM 30.7 °F 22.6 °F 20.3 °F 65% 30.04 in 10.0 mi WNW 9.2 mph - N/A   Overcast
5:55 PM 29.3 °F 20.8 °F 19.9 °F 68% 30.06 in 10.0 mi WNW 9.2 mph - N/A   Scattered Clouds
6:15 PM 28.2 °F 18.9 °F 19.8 °F 71% 30.07 in 10.0 mi West 10.4 mph - N/A   Clear
6:35 PM 27.5 °F 18.6 °F 19.4 °F 72% 30.08 in 10.0 mi West 9.2 mph - N/A   Clear
6:55 PM 27.1 °F 18.2 °F 19.4 °F 73% 30.09 in 10.0 mi West 9.2 mph - N/A   Clear
7:15 PM 26.2 °F 17.8 °F 19.0 °F 74% 30.10 in 10.0 mi West 8.1 mph - N/A   Clear
7:35 PM 25.3 °F 16.7 °F 18.5 °F 75% 30.11 in 10.0 mi West 8.1 mph - N/A   Clear
7:55 PM 25.0 °F 18.1 °F 18.5 °F 76% 30.11 in 10.0 mi WSW 5.8 mph - N/A   Clear
8:15 PM 24.8 °F 16.1 °F 18.5 °F 77% 30.11 in 10.0 mi West 8.1 mph - N/A   Clear
8:35 PM 24.6 °F 15.8 °F 18.5 °F 78% 30.12 in 10.0 mi WSW 8.1 mph - N/A   Clear
8:55 PM 24.3 °F 16.3 °F 18.9 °F 80% 30.13 in 10.0 mi WSW 6.9 mph - N/A   Clear
9:15 PM 24.4 °F 15.6 °F 19.0 °F 80% 30.13 in 10.0 mi West 8.1 mph - N/A   Clear
9:35 PM 24.6 °F 16.7 °F 19.2 °F 80% 30.14 in 10.0 mi WSW 6.9 mph - N/A   Clear
9:55 PM 23.7 °F 14.7 °F 18.7 °F 81% 30.14 in 10.0 mi WSW 8.1 mph - N/A   Clear
10:15 PM 23.0 °F 13.1 °F 18.7 °F 84% 30.15 in 10.0 mi WSW 9.2 mph - N/A   Clear
10:35 PM 23.0 °F 14.7 °F 18.7 °F 84% 30.15 in 10.0 mi WSW 6.9 mph - N/A   Clear
10:55 PM 22.1 °F 12.8 °F 18.7 °F 87% 30.15 in 10.0 mi WSW 8.1 mph - N/A   Clear
11:15 PM 22.1 °F 12.0 °F 19.0 °F 88% 30.14 in 10.0 mi WSW 9.2 mph - N/A   Clear
11:35 PM 22.1 °F 12.0 °F 19.0 °F 88% 30.14 in 10.0 mi WSW 9.2 mph - N/A   Clear
11:55 PM 22.1 °F 12.0 °F 18.9 °F 87% 30.14 in 10.0 mi WSW 9.2 mph - N/A   Clear